軌道要素
Epoch 2013 July 7.0 TT = JDT 2456480.5
T 2013 June 28.04652 TT MPC
q 4.3487102 (2000.0) P Q
z -0.0000149 Peri. 163.61884 +0.97262923 +0.21138677
+/-0.0000007 Node 173.10300 -0.04288105 -0.24478366
e 1.0000647 Incl. 126.54255 +0.22837160 -0.94625398
From 844 observations 2012 Sept. 28-2014 Jan. 1, mean residual 0".5.
|